Time,TemperatureF,DewpointF,PressureIn,WindDirection,WindDirectionDegrees,WindSpeedMPH,WindSpeedGustMPH,Humidity,HourlyPrecipIn,Conditions,Clouds,dailyrainin,SoftwareType,DateUTC
2013-04-21 00:22:00,55.0,47.0,-100.00,NNE,18,6.0,-999.0,74,0.00,,,-99.99,,2013-04-21 05:22:00,
2013-04-21 00:32:00,55.0,47.0,-100.00,NNE,18,6.0,-999.0,74,0.00,,,-99.99,,2013-04-21 05:32:00,
2013-04-21 00:42:00,55.0,47.0,-100.00,NNE,18,6.0,-999.0,74,0.00,,,-99.99,,2013-04-21 05:42:00,
2013-04-21 01:22:00,54.0,48.0,-100.00,NNE,32,5.0,-999.0,80,0.00,,,-99.99,,2013-04-21 06:22:00,
2013-04-21 01:32:00,54.0,48.0,-100.00,NNE,32,5.0,-999.0,80,0.00,,,-99.99,,2013-04-21 06:32:00,
2013-04-21 01:42:00,54.0,48.0,-100.00,NNE,32,5.0,-999.0,80,0.00,,,-99.99,,2013-04-21 06:42:00,
2013-04-21 02:21:00,52.0,48.0,-100.00,NNE,24,5.0,-999.0,85,0.00,,,-99.99,,2013-04-21 07:21:00,
2013-04-21 02:32:00,52.0,48.0,-100.00,NNE,24,5.0,-999.0,85,0.00,,,-99.99,,2013-04-21 07:32:00,
2013-04-21 02:42:00,52.0,48.0,-100.00,NNE,24,5.0,-999.0,85,0.00,,,-99.99,,2013-04-21 07:42:00,
2013-04-21 03:21:00,53.0,48.0,-100.00,NNE,32,6.0,-999.0,83,0.00,,,-99.99,,2013-04-21 08:21:00,
2013-04-21 03:32:00,53.0,48.0,-100.00,NNE,32,6.0,-999.0,83,0.00,,,-99.99,,2013-04-21 08:32:00,
2013-04-21 03:42:00,53.0,48.0,-100.00,NNE,32,6.0,-999.0,83,0.00,,,-99.99,,2013-04-21 08:42:00,
2013-04-21 04:21:00,50.0,48.0,-100.00,NNE,14,5.0,-999.0,90,0.00,,,-99.99,,2013-04-21 09:21:00,
2013-04-21 04:32:00,50.0,48.0,-100.00,NNE,14,5.0,-999.0,90,0.00,,,-99.99,,2013-04-21 09:32:00,
2013-04-21 04:43:00,50.0,48.0,-100.00,NNE,14,5.0,-999.0,90,0.00,,,-99.99,,2013-04-21 09:43:00,
2013-04-21 05:22:00,51.0,47.0,-100.00,NNE,31,7.0,-999.0,86,0.00,,,-99.99,,2013-04-21 10:22:00,
2013-04-21 05:32:00,51.0,47.0,-100.00,NNE,31,7.0,-999.0,86,0.00,,,-99.99,,2013-04-21 10:32:00,
2013-04-21 05:42:00,51.0,47.0,-100.00,NNE,31,7.0,-999.0,86,0.00,,,-99.99,,2013-04-21 10:42:00,
2013-04-21 06:22:00,49.0,47.0,-100.00,NNE,15,6.0,-999.0,93,0.00,,,-99.99,,2013-04-21 11:22:00,
2013-04-21 06:34:00,49.0,47.0,-100.00,NNE,15,6.0,-999.0,93,0.00,,,-99.99,,2013-04-21 11:34:00,
2013-04-21 06:42:00,49.0,47.0,-100.00,NNE,15,6.0,-999.0,93,0.00,,,-99.99,,2013-04-21 11:42:00,
2013-04-21 07:22:00,48.0,46.0,-100.00,NNE,17,6.0,-999.0,92,0.00,,,-99.99,,2013-04-21 12:22:00,
2013-04-21 07:32:00,48.0,46.0,-100.00,NNE,17,6.0,-999.0,92,0.00,,,-99.99,,2013-04-21 12:32:00,
2013-04-21 07:42:00,48.0,46.0,-100.00,NNE,17,6.0,-999.0,92,0.00,,,-99.99,,2013-04-21 12:42:00,
2013-04-21 08:21:00,53.0,47.0,-100.00,NE,36,8.0,-999.0,79,0.00,,,-99.99,,2013-04-21 13:21:00,
2013-04-21 08:32:00,53.0,47.0,-100.00,NE,36,8.0,-999.0,79,0.00,,,-99.99,,2013-04-21 13:32:00,
2013-04-21 08:42:00,53.0,47.0,-100.00,NE,36,8.0,-999.0,79,0.00,,,-99.99,,2013-04-21 13:42:00,
2013-04-21 09:21:00,58.0,49.0,-100.00,NE,52,13.0,-999.0,72,0.00,,,-99.99,,2013-04-21 14:21:00,
2013-04-21 09:32:00,58.0,49.0,-100.00,NE,52,13.0,-999.0,72,0.00,,,-99.99,,2013-04-21 14:32:00,
2013-04-21 09:42:00,58.0,49.0,-100.00,NE,52,13.0,-999.0,72,0.00,,,-99.99,,2013-04-21 14:42:00,
2013-04-21 10:22:00,63.0,47.0,-100.00,East,80,14.0,-999.0,57,0.00,,,-99.99,,2013-04-21 15:22:00,
2013-04-21 10:33:00,63.0,47.0,-100.00,East,80,14.0,-999.0,57,0.00,,,-99.99,,2013-04-21 15:33:00,
2013-04-21 10:43:00,63.0,47.0,-100.00,East,80,14.0,-999.0,57,0.00,,,-99.99,,2013-04-21 15:43:00,
2013-04-21 11:23:00,64.0,44.0,-100.00,East,80,15.0,-999.0,48,0.00,,,-99.99,,2013-04-21 16:23:00,
2013-04-21 11:33:00,64.0,44.0,-100.00,East,80,15.0,-999.0,48,0.00,,,-99.99,,2013-04-21 16:33:00,
2013-04-21 11:42:00,64.0,44.0,-100.00,East,80,15.0,-999.0,48,0.00,,,-99.99,,2013-04-21 16:42:00,
2013-04-21 12:23:00,64.0,49.0,-100.00,East,91,13.0,-999.0,58,0.00,,,-99.99,,2013-04-21 17:23:00,
2013-04-21 12:32:00,64.0,49.0,-100.00,East,91,13.0,-999.0,58,0.00,,,-99.99,,2013-04-21 17:32:00,
2013-04-21 12:42:00,64.0,49.0,-100.00,East,91,13.0,-999.0,58,0.00,,,-99.99,,2013-04-21 17:42:00,
2013-04-21 13:22:00,65.0,50.0,-100.00,ESE,109,11.0,-999.0,59,0.00,,,-99.99,,2013-04-21 18:22:00,
2013-04-21 13:32:00,65.0,50.0,-100.00,ESE,109,11.0,-999.0,59,0.00,,,-99.99,,2013-04-21 18:32:00,
2013-04-21 13:42:00,65.0,50.0,-100.00,ESE,109,11.0,-999.0,59,0.00,,,-99.99,,2013-04-21 18:42:00,
2013-04-21 14:21:00,64.0,53.0,-100.00,SE,139,11.0,-999.0,66,0.00,,,-99.99,,2013-04-21 19:21:00,
2013-04-21 14:32:00,64.0,53.0,-100.00,SE,139,11.0,-999.0,66,0.00,,,-99.99,,2013-04-21 19:32:00,
2013-04-21 14:42:00,64.0,53.0,-100.00,SE,139,11.0,-999.0,66,0.00,,,-99.99,,2013-04-21 19:42:00,
2013-04-21 15:11:00,65.0,54.0,-100.00,SE,140,12.0,-999.0,69,0.00,,,-99.99,,2013-04-21 20:11:00,
2013-04-21 15:22:00,65.0,54.0,-100.00,SE,140,12.0,-999.0,69,0.00,,,-99.99,,2013-04-21 20:22:00,
2013-04-21 15:32:00,65.0,54.0,-100.00,SE,140,12.0,-999.0,69,0.00,,,-99.99,,2013-04-21 20:32:00,
2013-04-21 15:42:00,65.0,54.0,-100.00,SE,140,12.0,-999.0,69,0.00,,,-99.99,,2013-04-21 20:42:00,
2013-04-21 16:21:00,65.0,55.0,-100.00,SE,144,11.0,-999.0,70,0.00,,,-99.99,,2013-04-21 21:21:00,
2013-04-21 16:33:00,65.0,55.0,-100.00,SE,144,11.0,-999.0,70,0.00,,,-99.99,,2013-04-21 21:33:00,
2013-04-21 16:43:00,65.0,55.0,-100.00,SE,144,11.0,-999.0,70,0.00,,,-99.99,,2013-04-21 21:43:00,
2013-04-21 17:22:00,65.0,54.0,-100.00,SSE,158,10.0,-999.0,65,0.00,,,-99.99,,2013-04-21 22:22:00,
2013-04-21 17:33:00,65.0,54.0,-100.00,SSE,158,10.0,-999.0,65,0.00,,,-99.99,,2013-04-21 22:33:00,
2013-04-21 17:43:00,65.0,54.0,-100.00,SSE,158,10.0,-999.0,65,0.00,,,-99.99,,2013-04-21 22:43:00,
2013-04-21 18:22:00,66.0,55.0,-100.00,SSE,155,11.0,-999.0,68,0.00,,,-99.99,,2013-04-21 23:22:00,
2013-04-21 18:32:00,66.0,55.0,-100.00,SSE,155,11.0,-999.0,68,0.00,,,-99.99,,2013-04-21 23:32:00,
2013-04-21 18:42:00,66.0,55.0,-100.00,SSE,155,11.0,-999.0,68,0.00,,,-99.99,,2013-04-21 23:42:00,
2013-04-21 19:22:00,66.0,56.0,-100.00,SE,146,9.0,-999.0,69,0.00,,,-99.99,,2013-04-22 00:22:00,
2013-04-21 19:32:00,66.0,56.0,-100.00,SE,146,9.0,-999.0,69,0.00,,,-99.99,,2013-04-22 00:32:00,
2013-04-21 19:42:00,66.0,56.0,-100.00,SE,146,9.0,-999.0,69,0.00,,,-99.99,,2013-04-22 00:42:00,
2013-04-21 20:21:00,66.0,55.0,-100.00,SE,126,8.0,-999.0,66,0.00,,,-99.99,,2013-04-22 01:21:00,
2013-04-21 20:32:00,66.0,55.0,-100.00,SE,126,8.0,-999.0,66,0.00,,,-99.99,,2013-04-22 01:32:00,
2013-04-21 20:42:00,66.0,55.0,-100.00,SE,126,8.0,-999.0,66,0.00,,,-99.99,,2013-04-22 01:42:00,
2013-04-21 21:11:00,65.0,57.0,-100.00,East,91,3.0,-999.0,74,0.00,,,-99.99,,2013-04-22 02:11:00,
2013-04-21 21:21:00,65.0,57.0,-100.00,East,91,3.0,-999.0,74,0.00,,,-99.99,,2013-04-22 02:21:00,
2013-04-21 21:32:00,65.0,57.0,-100.00,East,91,3.0,-999.0,74,0.00,,,-99.99,,2013-04-22 02:32:00,
2013-04-21 21:42:00,65.0,57.0,-100.00,East,91,3.0,-999.0,74,0.00,,,-99.99,,2013-04-22 02:42:00,
2013-04-21 22:22:00,60.0,57.0,-100.00,NNW,344,4.0,-999.0,90,0.00,,,-99.99,,2013-04-22 03:22:00,
2013-04-21 22:33:00,60.0,57.0,-100.00,NNW,344,4.0,-999.0,90,0.00,,,-99.99,,2013-04-22 03:33:00,
2013-04-21 22:43:00,60.0,57.0,-100.00,NNW,344,4.0,-999.0,90,0.00,,,-99.99,,2013-04-22 03:43:00,
2013-04-21 23:23:00,59.0,57.0,-100.00,North,0,4.0,-999.0,94,0.00,,,-99.99,,2013-04-22 04:23:00,
2013-04-21 23:33:00,59.0,57.0,-100.00,North,0,4.0,-999.0,94,0.00,,,-99.99,,2013-04-22 04:33:00,
2013-04-21 23:43:00,59.0,57.0,-100.00,North,0,4.0,-999.0,94,0.00,,,-99.99,,2013-04-22 04:43:00,